Weather History for KBLI - April, 2014

Change the Weather History Date:

Thursday, April 17, 2014

  Actual Average Record
Temperature  
Mean Temperature 51 °F 49 °F  
Max Temperature 56 °F 57 °F 69 °F (1952)
Min Temperature 45 °F 40 °F 30 °F (1964)
Degree Days  
Heating Degree Days 14 16  
Month to date heating degree days 246 297  
Cooling Degree Days 0 0  
Month to date cooling degree days 0 0  
Year to date cooling degree days 0 0  
Moisture  
Dew Point 45 °F    
Average Humidity 82    
Maximum Humidity 93    
Minimum Humidity 71    
Precipitation  
Precipitation 0.55 in 0.09 in 1.59 in (1992)
Month to date precipitation 1.50 1.63  
Year to date precipitation 12.47 12.54  
Sea Level Pressure  
Sea Level Pressure 29.81 in    
Wind  
Wind Speed 8 mph (SSE)    
Max Wind Speed 21 mph    
Max Gust Speed 30 mph    
Visibility 8 miles    
Events Rain    
T = Trace of Precipitation, MM = Missing Value Source: NWS Daily Summary

Daily Weather History Graph

Daily Weather History Graph

Search for Another Location

Airport or City:

Trip Planner

Search our weather history database for the weather conditions in past years. The results will help you decide how hot, cold, wet, or windy it might be!

Date:

Astronomy

Apr. 17, 2014 Rise Set
Actual Time 6:15 AM PDT 8:05 PM PDT
Civil Twilight 5:41 AM PDT 8:38 PM PDT
Nautical Twilight 5:00 AM PDT 9:20 PM PDT
Astronomical Twilight 4:15 AM PDT 10:05 PM PDT
Moon 11:07 PM PDT (4/17) 7:42 AM PDT (4/17)
Length of Visible Light 14h 56m
Length of Day
13h 49m
Waning Gibbous, 93% of the Moon is Illuminated
Apr 17
Waning Gibbous
Apr 22
Last Quarter
Apr 28
New
May 6
First Quarter
May 14
Full

Hourly Weather History & Observations

Time (PDT) Temp. Windchill Dew Point Humidity Pressure Visibility Wind Dir Wind Speed Gust Speed Precip Events Conditions
12:53 AM 52.0 °F - 46.9 °F 83% 29.89 in 9.0 mi SSE 11.5 mph 19.6 mph 0.05 in Rain Light Rain
1:53 AM 51.1 °F - 46.9 °F 86% 29.88 in 10.0 mi SSE 15.0 mph - 0.04 in Rain Light Rain
2:42 AM 51.8 °F - 46.4 °F 82% 29.84 in 10.0 mi SSE 15.0 mph 26.5 mph 0.02 in Rain Light Rain
2:53 AM 51.1 °F - 46.9 °F 86% 29.87 in 10.0 mi SSE 15.0 mph 21.9 mph 0.02 in Rain Light Rain
3:07 AM 50.0 °F - 46.4 °F 87% 29.84 in 9.0 mi South 16.1 mph 23.0 mph 0.01 in Rain Light Rain
3:30 AM 50.0 °F - 46.4 °F 87% 29.84 in 10.0 mi SSE 13.8 mph 21.9 mph 0.01 in Rain Light Rain
3:53 AM 50.0 °F - 46.9 °F 89% 29.86 in 10.0 mi SSE 9.2 mph - 0.02 in   Overcast
4:53 AM 51.1 °F - 45.0 °F 80% 29.87 in 10.0 mi South 10.4 mph - 0.00 in Rain Light Rain
5:53 AM 50.0 °F - 46.0 °F 86% 29.86 in 10.0 mi SSE 5.8 mph - 0.02 in Rain Light Rain
6:53 AM 48.9 °F - 46.0 °F 90% 29.86 in 6.0 mi SSE 4.6 mph - 0.03 in Rain Light Rain
7:53 AM 50.0 °F - 46.9 °F 89% 29.85 in 6.0 mi SSE 3.5 mph - 0.05 in Rain Light Rain
8:53 AM 50.0 °F - 46.9 °F 89% 29.84 in 8.0 mi SSE 3.5 mph - 0.02 in Rain Light Rain
9:11 AM 50.0 °F - 46.4 °F 87% 29.81 in 9.0 mi SSE 3.5 mph - 0.00 in Rain Light Rain
9:48 AM 51.8 °F - 48.2 °F 88% 29.80 in 9.0 mi Calm Calm - 0.00 in Rain Light Rain
9:53 AM 51.8 °F - 48.2 °F 88% 29.80 in 9.0 mi Calm Calm - N/A Rain Light Rain
10:53 AM 51.1 °F - 48.0 °F 89% 29.82 in 6.0 mi Calm Calm - 0.03 in Rain Light Rain
11:53 AM 52.0 °F - 46.9 °F 83% 29.81 in 8.0 mi ESE 5.8 mph - 0.02 in Rain Light Rain
12:53 PM 52.0 °F - 48.0 °F 86% 29.79 in 8.0 mi SE 6.9 mph - 0.04 in Rain Light Rain
1:53 PM 54.0 °F - 48.0 °F 80% 29.78 in 10.0 mi SE 8.1 mph - 0.01 in Rain Light Rain
2:53 PM 55.0 °F - 46.9 °F 74% 29.76 in 8.0 mi SE 11.5 mph 20.7 mph 0.00 in   Overcast
3:53 PM 54.0 °F - 45.0 °F 72% 29.74 in 10.0 mi SE 16.1 mph 21.9 mph N/A   Overcast
4:46 PM 53.6 °F - 46.4 °F 77% 29.70 in 10.0 mi SSE 12.7 mph 20.7 mph 0.00 in Rain Light Rain
4:53 PM 54.0 °F - 46.0 °F 75% 29.73 in 10.0 mi SSE 11.5 mph 20.7 mph 0.01 in Rain Light Rain
5:53 PM 53.1 °F - 46.0 °F 77% 29.71 in 10.0 mi SSE 15.0 mph 20.7 mph 0.00 in Rain Light Rain
6:21 PM 53.6 °F - 46.4 °F 77% 29.68 in 10.0 mi SSE 18.4 mph 29.9 mph 0.01 in Rain Light Rain
6:53 PM 52.0 °F - 45.0 °F 77% 29.70 in 9.0 mi SSE 19.6 mph 27.6 mph 0.01 in Rain Light Rain
7:53 PM 48.0 °F - 44.1 °F 86% 29.73 in 5.0 mi Variable 5.8 mph - 0.15 in Rain Rain
8:02 PM 46.4 °F 42.4 °F 44.6 °F 93% 29.71 in 5.0 mi South 8.1 mph - 0.03 in Rain Light Rain
8:53 PM 48.0 °F - 44.1 °F 86% 29.80 in 7.0 mi WSW 8.1 mph - 0.03 in Rain Light Rain
9:25 PM 44.6 °F 43.1 °F 42.8 °F 93% 29.80 in 6.0 mi South 3.5 mph - 0.01 in Rain Light Rain
9:34 PM 44.6 °F - 42.8 °F 93% 29.80 in 6.0 mi Calm Calm - 0.01 in Rain Light Rain
9:53 PM 45.0 °F - 43.0 °F 93% 29.84 in 5.0 mi Calm Calm - 0.02 in Rain Light Rain
10:09 PM 44.6 °F - 42.8 °F 93% 29.82 in 7.0 mi Calm Calm - 0.01 in Rain Light Rain
10:20 PM 44.6 °F - 42.8 °F 93% 29.82 in 8.0 mi Calm Calm - 0.01 in Rain Light Rain
10:38 PM 44.6 °F 43.1 °F 42.8 °F 93% 29.83 in 5.0 mi South 3.5 mph - 0.02 in Rain Light Rain
10:48 PM 44.6 °F 41.4 °F 42.8 °F 93% 29.83 in 5.0 mi SSE 5.8 mph - 0.03 in Rain Light Rain
10:53 PM 45.0 °F 41.8 °F 43.0 °F 93% 29.86 in 5.0 mi SSE 5.8 mph - 0.03 in Rain Light Rain
11:33 PM 46.4 °F 43.5 °F 42.8 °F 87% 29.84 in 10.0 mi SE 5.8 mph - 0.01 in   Overcast
11:53 PM 45.0 °F 42.6 °F 43.0 °F 93% 29.87 in 10.0 mi South 4.6 mph - 0.01 in   Overcast